Location: Unspecified
(0.0000°N, 0.0000°E)
Time: 23:48:40
(UTC+02:00)

Cosmos 1908 Rocket - Visible Passes

Search period start: 25 April 2015 00:00
Search period end: 05 May 2015 00:00
Orbit: 607 x 634 km, 82.5° (Epoch: 24 April)

Date Brightness Start Highest point End Pass type
(mag) Time Alt. Az. Time Alt. Az. Time Alt. Az.
25 Apr 3.7 21:02:14 10° N 21:06:41 76° W 21:11:11 10° S visible
26 Apr 5.4 21:20:22 10° NNW 21:24:22 32° W 21:28:20 10° SSW visible
27 Apr 6.6 21:39:35 10° WNW 21:42:08 14° W 21:44:25 10° SW visible
28 Apr 3.8 20:17:42 10° N 20:22:02 51° E 20:26:23 10° SSE visible
29 Apr 4.0 20:35:15 10° N 20:39:41 67° W 20:44:08 10° S visible
30 Apr 5.8 20:53:29 10° NW 20:57:22 28° W 21:01:11 10° SSW visible
01 May 6.6 07:25:58 10° SE 07:28:30 16° E 07:31:15 10° NE visible
01 May 6.8 21:13:00 10° WNW 21:15:08 13° W 21:16:57 10° WSW visible
04 May 6.1 20:26:36 10° NW 20:30:21 25° W 20:34:00 10° SSW visible
